(394750) = 2008 FF51 = 2008 GX81

Discovered at Mount Lemmon on 2008-03-28 by Mt. Lemmon Survey.

Orbit

Orbit type: Main Belt

Note: WebGL enabled browser required.

epoch2023-09-13.0
epoch JD2460200.5
perihelion date2018-11-15.63217
perihelion JD2458438.13217
argument of perihelion (°)349.72917
ascending node (°)151.64039
inclination (°)2.69319
eccentricity0.1423259
perihelion distance (AU)2.7035770
Tisserand w.r.t. Jupiter3.2
ΔV w.r.t. Earth (km/sec)10.3
semimajor axis (AU)3.1522196
mean anomaly (°)310.36712
mean daily motion (°/day)0.17610800
aphelion distance (AU)3.601
period (years)5.6
P-vector [x]-0.78128236
P-vector [y]0.57595288
P-vector [z]0.24057464
Q-vector [x]-0.62377858
Q-vector [y]-0.73424040
Q-vector [z]-0.26793901
absolute magnitude17.07
phase slope0.15
uncertainty0
referenceMPEC 2024-B173
observations used111
oppositions11
arc length (days)8051
first opposition used2002
last opposition used2024
residual rms (arc-secs)0.81
perturbers coarse indicatorM-v
perturbers precise indicator003Ek
first observation date used2002-01-14.0
last observation date used2024-01-30.0
computer nameMPCLINUX
JD of orbit computation2456819.375604
perihelion JD uncertainty (days)1.5903E-04
argument of perihelion uncertainty (°)9.8590E-05
ascending node uncertainty (°)9.2680E-05
inclination uncertainty (°)4.2660E-06
eccentricity uncertainty 5.6932E-08
perihelion distance uncertainty (AU)1.8309E-07
Minimum Orbit Intersection Distances (in AU)
for orbit epoch: 2460200.5, reference: E2024-BH3
Mercury2.35467
Venus1.98692
Earth1.71513
Mars1.04413
Jupiter1.41891
Saturn6.00698
Uranus15.6823
Neptune26.3945

Observations

116 total observations over interval: 2002 01 14.34398 – 2024 01 30.186460
These data are available for download (format description).

